, FL

(GMT )
Crestview

Weather History for KEGI - March, 2012

Change the Weather History Date:

Saturday, March 31, 2012

  Actual Average Record
Temperature  
Mean Temperature 71 °F -  
Max Temperature 79 °F - - ()
Min Temperature 64 °F - - ()
Cooling Degree Days 6    
Growing Degree Days 21 (Base 50)    
Moisture  
Dew Point 66 °F    
Average Humidity 93    
Maximum Humidity 100    
Minimum Humidity 63    
Precipitation  
Precipitation 0.73 in - - ()
Sea Level Pressure  
Sea Level Pressure 29.93 in    
Wind  
Wind Speed 5 mph (SW)    
Max Wind Speed 9 mph    
Max Gust Speed -    
Visibility 8 miles    
Events Rain , Thunderstorm    
Averages and records for this station are not official NWS values.
T = Trace of Precipitation, MM = Missing Value Source: NWS Daily Summary

Daily Weather History Graph

Daily Weather History Graph

Search for Another Location

Airport or City:

Trip Planner

Search our weather history database for the weather conditions in past years. The results will help you decide how hot, cold, wet, or windy it might be!

Date:

Astronomy

Mar. 31, 2012 Rise Set
Actual Time 6:35 AM CDT 7:04 PM CDT
Civil Twilight 6:11 AM CDT 7:29 PM CDT
Nautical Twilight 5:43 AM CDT 7:57 PM CDT
Astronomical Twilight 5:14 AM CDT 8:26 PM CDT
Moon 12:57 PM CDT (3/31) 2:06 AM CDT (3/31)
Length of Visible Light 13h 17m
Length of Day
12h 29m
First Quarter, 59% of the Moon is Illuminated
Mar 31
First Quarter
Apr 6
Full
Apr 13
Last Quarter
Apr 21
New
Apr 29
First Quarter

Hourly Weather History & Observations

Time (CDT) Temp. Dew Point Humidity Pressure Visibility Wind Dir Wind Speed Gust Speed Precip Events Conditions
12:55 AM 70.0 °F 67.8 °F 93% 29.92 in 10.0 mi South 8.1 mph - N/A   Scattered Clouds
1:07 AM 69.8 °F 68.0 °F 94% 29.91 in 10.0 mi South 8.1 mph - N/A Thunderstorm Thunderstorm
1:12 AM 69.8 °F 68.0 °F 94% 29.91 in 10.0 mi South 8.1 mph - N/A Rain , Thunderstorm Light Thunderstorms and Rain
1:16 AM 69.8 °F 68.0 °F 94% 29.92 in 10.0 mi South 6.9 mph - N/A Rain , Thunderstorm Light Thunderstorms and Rain
1:25 AM 69.8 °F 68.0 °F 94% 29.91 in 9.0 mi South 6.9 mph - N/A Rain , Thunderstorm Light Thunderstorms and Rain
1:27 AM 69.8 °F 68.0 °F 94% 29.91 in 8.0 mi South 8.1 mph - N/A Rain , Thunderstorm Thunderstorms and Rain
1:46 AM 68.0 °F 64.4 °F 88% 29.91 in 3.0 mi SW 6.9 mph - N/A Rain , Thunderstorm Heavy Thunderstorms and Rain
1:55 AM 67.3 °F 63.7 °F 88% 29.91 in 3.0 mi West 8.1 mph - 0.16 in Rain , Thunderstorm Heavy Thunderstorms and Rain
2:24 AM 66.2 °F 64.4 °F 94% 29.90 in 7.0 mi SW 3.5 mph - N/A Rain , Thunderstorm Light Thunderstorms and Rain
2:28 AM 66.2 °F 64.4 °F 94% 29.90 in 7.0 mi SSW 4.6 mph - N/A Rain , Thunderstorm Light Thunderstorms and Rain
2:55 AM 66.7 °F 64.6 °F 93% 29.90 in 5.0 mi SSW 8.1 mph - 0.18 in Rain , Thunderstorm Thunderstorms and Rain
3:55 AM 65.5 °F 64.6 °F 97% 29.91 in 5.0 mi Variable 3.5 mph - 0.19 in Rain , Thunderstorm Light Thunderstorms and Rain
3:59 AM 66.2 °F 64.4 °F 94% 29.91 in 8.0 mi SW 6.9 mph - N/A Rain , Thunderstorm Light Rain
4:55 AM 65.3 °F 64.4 °F 97% 29.90 in 7.0 mi NNW 5.8 mph - 0.09 in Rain Light Rain
5:02 AM 64.4 °F 64.4 °F 100% 29.88 in 6.0 mi NNE 6.9 mph - N/A Rain Rain
5:09 AM 64.4 °F 64.4 °F 100% 29.89 in 6.0 mi Calm Calm - N/A Rain Light Rain
5:28 AM 64.4 °F 64.4 °F 100% 29.91 in 10.0 mi Calm Calm - N/A   Scattered Clouds
5:55 AM 64.9 °F 64.6 °F 99% 29.91 in 10.0 mi Calm Calm - 0.03 in   Scattered Clouds
6:17 AM 64.4 °F 64.4 °F 100% 29.94 in 10.0 mi South 8.1 mph - N/A Rain Light Rain
6:28 AM 64.4 °F 64.4 °F 100% 29.94 in 4.0 mi SSE 6.9 mph - N/A Rain Rain
6:37 AM 64.4 °F 64.4 °F 100% 29.93 in 6.0 mi SE 3.5 mph - N/A Rain Light Rain
6:55 AM 64.8 °F 64.4 °F 99% 29.92 in 9.0 mi SE 5.8 mph - 0.06 in Rain Light Rain
7:15 AM 64.4 °F 64.4 °F 100% 29.90 in 10.0 mi East 4.6 mph - N/A   Partly Cloudy
7:32 AM 64.4 °F 64.4 °F 100% 29.90 in 10.0 mi Calm Calm - N/A   Partly Cloudy
7:52 AM 64.4 °F 64.4 °F 100% 29.91 in 10.0 mi Calm Calm - N/A   Mostly Cloudy
7:55 AM 64.9 °F 64.6 °F 99% 29.91 in 10.0 mi Calm Calm - 0.00 in   Mostly Cloudy
7:59 AM 64.4 °F 64.4 °F 100% 29.92 in 10.0 mi North 3.5 mph - N/A   Mostly Cloudy
8:23 AM 64.4 °F 64.4 °F 100% 29.94 in 10.0 mi NNW 4.6 mph - N/A Rain Light Rain
8:55 AM 65.1 °F 64.8 °F 99% 29.95 in 8.0 mi Calm Calm - 0.01 in Rain Light Rain
9:22 AM 66.2 °F 64.4 °F 94% 29.96 in 10.0 mi Calm Calm - N/A   Overcast
9:24 AM 66.2 °F 66.2 °F 100% 29.96 in 10.0 mi WSW 3.5 mph - N/A   Mostly Cloudy
9:25 AM 66.2 °F 66.2 °F 100% 29.96 in 10.0 mi WSW 3.5 mph - N/A   Overcast
9:26 AM 66.2 °F 66.2 °F 100% 29.96 in 10.0 mi WSW 3.5 mph - N/A   Light Drizzle
9:33 AM 66.2 °F 66.2 °F 100% 29.96 in 10.0 mi Calm Calm - N/A   Light Drizzle
9:51 AM 66.2 °F 66.2 °F 100% 29.95 in 10.0 mi WSW 3.5 mph - N/A   Mostly Cloudy
9:55 AM 66.0 °F 65.8 °F 99% 29.95 in 10.0 mi WSW 3.5 mph - 0.00 in   Light Drizzle
9:59 AM 66.2 °F 66.2 °F 100% 29.96 in 10.0 mi WSW 4.6 mph - N/A   Light Drizzle
10:05 AM 66.2 °F 66.2 °F 100% 29.96 in 10.0 mi West 5.8 mph - N/A   Light Drizzle
10:07 AM 66.2 °F 66.2 °F 100% 29.96 in 10.0 mi West 4.6 mph - N/A   Light Drizzle
10:22 AM 66.2 °F 66.2 °F 100% 29.97 in 10.0 mi West 4.6 mph - N/A   Mostly Cloudy
10:55 AM 67.1 °F 66.6 °F 98% 29.96 in 10.0 mi West 5.8 mph - 0.01 in   Partly Cloudy
11:40 AM 69.8 °F 64.4 °F 83% 29.96 in 10.0 mi WNW 5.8 mph - N/A   Light Drizzle
11:55 AM 69.4 °F 65.1 °F 86% 29.95 in 10.0 mi North 3.5 mph - 0.00 in Rain Light Rain
12:18 PM 69.8 °F 64.4 °F 83% 29.95 in 10.0 mi Calm Calm - N/A   Scattered Clouds
12:55 PM 71.8 °F 64.4 °F 77% 29.94 in 10.0 mi NW 5.8 mph - 0.00 in   Scattered Clouds
1:55 PM 75.2 °F 65.5 °F 72% 29.91 in 10.0 mi WNW 9.2 mph - N/A   Scattered Clouds
2:03 PM 75.2 °F 66.2 °F 73% 29.91 in 10.0 mi North 8.1 mph - N/A   Mostly Cloudy
2:16 PM 73.4 °F 66.2 °F 78% 29.91 in 10.0 mi NNW 3.5 mph - N/A   Mostly Cloudy
2:55 PM 75.4 °F 64.8 °F 69% 29.89 in 10.0 mi Calm Calm - N/A   Clear
3:55 PM 78.8 °F 65.3 °F 63% 29.87 in 10.0 mi SSW 8.1 mph - N/A   Mostly Cloudy
4:55 PM 76.6 °F 66.0 °F 70% 29.87 in 10.0 mi SSE 6.9 mph - N/A   Partly Cloudy
5:55 PM 77.0 °F 66.4 °F 70% 29.87 in 10.0 mi South 9.2 mph - N/A   Clear
6:55 PM 73.2 °F 66.7 °F 80% 29.87 in 10.0 mi SSE 5.8 mph - N/A   Clear
7:55 PM 71.4 °F 67.6 °F 88% 29.89 in 10.0 mi South 8.1 mph - N/A   Mostly Cloudy
8:55 PM 69.8 °F 68.0 °F 94% 29.91 in 10.0 mi South 6.9 mph - N/A   Clear
9:55 PM 68.0 °F 67.6 °F 99% 29.94 in 10.0 mi SSE 4.6 mph - N/A   Clear
10:55 PM 68.5 °F 68.2 °F 99% 29.94 in 10.0 mi SSW 3.5 mph - N/A   Clear
11:29 PM 66.2 °F 66.2 °F 100% 29.95 in 2.5 mi Calm Calm - N/A   Clear
11:31 PM 66.2 °F 66.2 °F 100% 29.95 in 2.0 mi Calm Calm - N/A   Clear
11:33 PM 66.2 °F 66.2 °F 100% 29.95 in 1.8 mi Calm Calm - N/A   Clear
11:39 PM 68.0 °F 66.2 °F 94% 29.95 in 2.0 mi Calm Calm - N/A   Clear
11:41 PM 68.0 °F 66.2 °F 94% 29.95 in 2.5 mi Calm Calm - N/A   Clear
11:42 PM 68.0 °F 66.2 °F 94% 29.96 in 3.0 mi Calm Calm - N/A   Clear
11:55 PM 67.5 °F 67.1 °F 99% 29.95 in 9.0 mi SW 3.5 mph - N/A   Clear